Flag for Norway Weather past 2 weeks in Søgne, Norway

Now
48 °F

Cool.


Feels Like: 44 °F
Forecast: 41 / 66 °F
Wind: 8 mph from West

Location: Oksoy Fyr

Current Time: Apr 19, 2015 at 7:49:39 PM

Latest Report: Apr 19, 2015 at 7:00 PM


Visibility: N/A

Pressure: 30.31 "Hg

Humidity: 73%

Dew point: 39 °F

Location of SøgneLocation

Historic Weather in Søgne — Graph

°F

Søgne temperature yesterday

Maximum temperature yesterday: 50 °F (at 4:00 PM)
Minimum temperature yesterday: 37 °F (at 6:00 AM)
Average temperature yesterday: 44 °F

Past Weeks' High & Low Weather Summary

 TemperatureHumidityPressure
High56 °F (Apr 17, 1:00 PM)98% (Apr 11, 7:00 AM)30.49 "Hg (Apr 11, 7:00 AM)
Low33 °F (Apr 5, 4:00 AM)29% (Apr 17, 1:00 PM)29.58 "Hg (Apr 15, 2:00 PM)
Average43 °F78%30.11 "Hg
* Reported Apr 4 6:00 PM — Apr 19 6:00 PM, Søgne, Weather by CustomWeather, © 2015

Note: Actual official high and low records may vary slightly from our data, if they occured in-between our weather recording intervals... More about our weather records

Advertising

Søgne weather history for previous 24 hours

 ConditionsComfort  
Time TempWeatherWind HumidityBarometerVisibility
6:00 PM
Sun, Apr 19
48 °FCool.8 mph73%30.33 "HgN/A
5:00 PM49 °FCool.5 mph66%30.34 "HgN/A
4:00 PM49 °FCool.3 mph67%30.36 "HgN/A
3:00 PM49 °FCool.2 mph65%30.37 "HgN/A
2:00 PM49 °FCool.3 mph65%30.38 "HgN/A
1:00 PM50 °FCool.7 mph67%30.38 "HgN/A
12:00 PM50 °FCool.9 mph64%30.38 "HgN/A
11:00 AM49 °FCool.10 mph63%30.37 "HgN/A
10:00 AM49 °FCool.10 mph60%30.37 "HgN/A
9:00 AM48 °FCool.12 mph60%30.37 "HgN/A
8:00 AM46 °FCool.8 mph67%30.34 "HgN/A
7:00 AM44 °FQuite cool.7 mph71%30.32 "HgN/A
6:00 AM44 °FQuite cool.7 mph69%30.30 "HgN/A
5:00 AM46 °FCool.9 mph64%30.30 "HgN/A
4:00 AM46 °FCool.10 mph63%30.30 "HgN/A
3:00 AM47 °FCool.9 mph62%30.29 "HgN/A
2:00 AM47 °FCool.6 mph67%30.27 "HgN/A
1:00 AM49 °FCool.9 mph55%30.24 "HgN/A
12:00 AM48 °FCool.9 mph61%30.22 "HgN/A
11:00 PM
Sat, Apr 18
47 °FCool.6 mph67%30.20 "HgN/A
10:00 PM45 °FCool.2 mph86%30.19 "HgN/A
9:00 PM45 °FCool.3 mph87%30.16 "HgN/A
8:00 PM46 °FCool.6 mph87%30.14 "HgN/A
7:00 PM47 °FCool.5 mph83%30.12 "HgN/A
Weather by CustomWeather, © 2015

See weather overviewHow to use our weather pages